(°C)
18°
19°
19°
20°
20°
21°
21°
(°C)
20°
21°
22°
22°
22°
22°
23°
OSO
ONO
NO
NO
NNO
N
N
(km/h)
1-7
1-7
1-9
2-8
2-8
2-7
2-8
(mm)
0
0
0
1.4
0
0
1.2
(%)
37
48
47
74
63
63
85

Sonnenhöhe

/ 26.3°
sun-icon
UV 4
05:25
21:17
Abnehmender Halbmond (313°)
00:51
18:48

METAR für 55.27°N 86.11°O (UNEE)

Zeit Bedingungen Temperatur/
Taupunkt
Wind Sichtweite Wetter Wolken Druck Änderung Roh
VFR 18°C / 15°C 110º 4kt >10km - Few Clouds 300ft 1007 No Significant change UNEE 040130Z 11002MPS 9999 FEW003 SCT040CB 18/15 Q1007 R23/CLRD60 NOSIG RMK QFE732
VFR 17°C / 16°C 120º 2kt >10km - Few Clouds 300ft 1007 No Significant change UNEE 040100Z 12001MPS 9999 FEW003 SCT040CB 17/16 Q1007 R05/CLRD60 NOSIG RMK QFE733
VFR 16°C / 15°C 130º 6kt 9000m - Few Clouds 300ft 1007 No Significant change UNEE 040030Z 13003MPS 9000 FEW003 SCT040CB 16/15 Q1007 R05/CLRD60 NOSIG RMK QFE733
LIFR 15°C / 15°C 140º 4kt 1600m. Runway 23: Visual range is 250m. Fog Vertical Visibility of 0ft. 1007 No Significant change UNEE 040000Z 14002MPS 1600 0200NE R23/0250N FG SCT000 15/15 Q1007 R23/CLRD60 NOSIG RMK QBB020 QFE733
LIFR 14°C / 14°C 130º 4kt 140m. Runway 23: Visual range is 200m. Fog Vertical Visibility of 0ft. 1007 No Significant change UNEE 032330Z 13002MPS 0150 0100SE R23/0200N FG VV001 14/14 Q1007 R23/CLRD60 NOSIG RMK QBB030 QFE733
LIFR 14°C / 14°C 100º 4kt 140m. Runway 23: Visual range is 150m. Fog Vertical Visibility of 0ft. 1007 No Significant change UNEE 032300Z 10002MPS 0150 0100NE R23/0150N FG SCT001 14/14 Q1007 R23/CLRD60 NOSIG RMK QBB030 QFE732
IFR 14°C / 14°C 110º 4kt 2300m. Runway 23: Visual range is 450m and decreasing. Fog Vertical Visibility of 0ft. 1007 No Significant change UNEE 032230Z 11002MPS 2300 0350NE R23/0450D FG NSC 14/14 Q1007 R23/CLRD60 NOSIG RMK QFE732
MVFR 15°C / 15°C 140º 4kt 6000m - Clear 1007 No Significant change UNEE 032200Z 14002MPS 6000 NSC 15/15 Q1007 R23/CLRD60 NOSIG RMK QFE732
MVFR 15°C / 15°C 140º 4kt 8000m - Clear 1007 No Significant change UNEE 032130Z 14002MPS 8000 NSC 15/15 Q1007 R23/CLRD60 NOSIG RMK QFE732
VFR 15°C / 15°C 140º 4kt >10km - Clouds and Visibility OK 1007 No Significant change UNEE 032100Z 14002MPS CAVOK 15/15 Q1007 R23/CLRD60 NOSIG RMK QFE732
VFR 16°C / 15°C 150º 4kt >10km - Clouds and Visibility OK 1007 No Significant change UNEE 032030Z 15002MPS CAVOK 16/15 Q1007 R23/CLRD60 NOSIG RMK QFE733
VFR 16°C / 16°C 150º 4kt >10km - Clouds and Visibility OK 1007 No Significant change UNEE 032000Z 15002MPS CAVOK 16/16 Q1007 R23/CLRD60 NOSIG RMK QFE733
VFR 17°C / 16°C 160º 4kt >10km - Clouds and Visibility OK 1007 No Significant change UNEE 031930Z 16002MPS CAVOK 17/16 Q1007 R23/CLRD60 NOSIG RMK QFE733
VFR 17°C / 16°C 140º 4kt >10km - Few Clouds 4000ft 1007 No Significant change UNEE 031900Z 14002MPS 9999 FEW040 17/16 Q1007 R23/CLRD60 NOSIG RMK QFE733
VFR 17°C / 16°C variable 0kt >10km - Few Clouds 4000ft 1008 No Significant change UNEE 031830Z 00000MPS 9999 FEW040 17/16 Q1008 R23/CLRD60 NOSIG RMK QFE733
VFR 17°C / 16°C variable 0kt >10km - Few Clouds 4000ft 1008 No Significant change UNEE 031800Z 00000MPS 9999 FEW040 17/16 Q1008 R23/CLRD60 NOSIG RMK QFE733
VFR 18°C / 16°C 90º 2kt >10km - Few Clouds 3300ft 1008 No Significant change UNEE 031730Z 09001MPS 9999 FEW033CB 18/16 Q1008 R23/CLRD60 NOSIG RMK QFE733
VFR 17°C / 16°C 50º 2kt >10km - Few Clouds 3300ft 1008 No Significant change UNEE 031700Z 05001MPS 9999 FEW033CB 17/16 Q1008 R23/CLRD60 NOSIG RMK QFE733
VFR 18°C / 16°C 260º variable 210º to 280º 4kt >10km - Few Clouds 3300ft 1008 No Significant change UNEE 031630Z 26002MPS 210V280 9999 FEW033CB 18/16 Q1008 R23/CLRD60 NOSIG RMK QFE733
VFR 18°C / 16°C 150º 4kt >10km - Few Clouds 3300ft 1008 No Significant change UNEE 031600Z 15002MPS 9999 FEW033CB 18/16 Q1008 R23/CLRD60 NOSIG RMK QFE733
VFR 19°C / 16°C 190º 4kt >10km - Few Clouds 3300ft 1008 No Significant change UNEE 031530Z 19002MPS 9999 FEW033CB 19/16 Q1008 R23/CLRD60 NOSIG RMK QFE733
VFR 19°C / 16°C 210º 6kt >10km - Few Clouds 3300ft 1008 No Significant change UNEE 031500Z 21003MPS 9999 FEW033CB 19/16 Q1008 R23/CLRD60 NOSIG RMK QFE733
VFR 20°C / 16°C 220º 6kt >10km - Clouds and Visibility OK 1007 No Significant change UNEE 031430Z 22003MPS CAVOK 20/16 Q1007 R23/CLRD60 NOSIG RMK QFE733
VFR 21°C / 16°C 210º 6kt >10km - Clouds and Visibility OK 1007 No Significant change UNEE 031400Z 21003MPS CAVOK 21/16 Q1007 R23/CLRD60 NOSIG RMK QFE732

VFR

18°C / 15°C

[Mehr]
Wind 110º 4kt
Sichtweite >10km
Wetter -
Wolken Few Clouds 300ft
Druck 1007
Änderung No Significant change
Roh UNEE 040130Z 11002MPS 9999 FEW003 SCT040CB 18/15 Q1007 R23/CLRD60 NOSIG RMK QFE732

VFR

17°C / 16°C

[Mehr]
Wind 120º 2kt
Sichtweite >10km
Wetter -
Wolken Few Clouds 300ft
Druck 1007
Änderung No Significant change
Roh UNEE 040100Z 12001MPS 9999 FEW003 SCT040CB 17/16 Q1007 R05/CLRD60 NOSIG RMK QFE733

VFR

16°C / 15°C

[Mehr]
Wind 130º 6kt
Sichtweite 9000m
Wetter -
Wolken Few Clouds 300ft
Druck 1007
Änderung No Significant change
Roh UNEE 040030Z 13003MPS 9000 FEW003 SCT040CB 16/15 Q1007 R05/CLRD60 NOSIG RMK QFE733

LIFR

15°C / 15°C

[Mehr]
Wind 140º 4kt
Sichtweite 1600m. Runway 23: Visual range is 250m.
Wetter Fog
Wolken Vertical Visibility of 0ft.
Druck 1007
Änderung No Significant change
Roh UNEE 040000Z 14002MPS 1600 0200NE R23/0250N FG SCT000 15/15 Q1007 R23/CLRD60 NOSIG RMK QBB020 QFE733

LIFR

14°C / 14°C

[Mehr]
Wind 130º 4kt
Sichtweite 140m. Runway 23: Visual range is 200m.
Wetter Fog
Wolken Vertical Visibility of 0ft.
Druck 1007
Änderung No Significant change
Roh UNEE 032330Z 13002MPS 0150 0100SE R23/0200N FG VV001 14/14 Q1007 R23/CLRD60 NOSIG RMK QBB030 QFE733

LIFR

14°C / 14°C

[Mehr]
Wind 100º 4kt
Sichtweite 140m. Runway 23: Visual range is 150m.
Wetter Fog
Wolken Vertical Visibility of 0ft.
Druck 1007
Änderung No Significant change
Roh UNEE 032300Z 10002MPS 0150 0100NE R23/0150N FG SCT001 14/14 Q1007 R23/CLRD60 NOSIG RMK QBB030 QFE732

IFR

14°C / 14°C

[Mehr]
Wind 110º 4kt
Sichtweite 2300m. Runway 23: Visual range is 450m and decreasing.
Wetter Fog
Wolken Vertical Visibility of 0ft.
Druck 1007
Änderung No Significant change
Roh UNEE 032230Z 11002MPS 2300 0350NE R23/0450D FG NSC 14/14 Q1007 R23/CLRD60 NOSIG RMK QFE732

MVFR

15°C / 15°C

[Mehr]
Wind 140º 4kt
Sichtweite 6000m
Wetter -
Wolken Clear
Druck 1007
Änderung No Significant change
Roh UNEE 032200Z 14002MPS 6000 NSC 15/15 Q1007 R23/CLRD60 NOSIG RMK QFE732

MVFR

15°C / 15°C

[Mehr]
Wind 140º 4kt
Sichtweite 8000m
Wetter -
Wolken Clear
Druck 1007
Änderung No Significant change
Roh UNEE 032130Z 14002MPS 8000 NSC 15/15 Q1007 R23/CLRD60 NOSIG RMK QFE732

VFR

15°C / 15°C

[Mehr]
Wind 140º 4kt
Sichtweite >10km
Wetter -
Wolken Clouds and Visibility OK
Druck 1007
Änderung No Significant change
Roh UNEE 032100Z 14002MPS CAVOK 15/15 Q1007 R23/CLRD60 NOSIG RMK QFE732

VFR

16°C / 15°C

[Mehr]
Wind 150º 4kt
Sichtweite >10km
Wetter -
Wolken Clouds and Visibility OK
Druck 1007
Änderung No Significant change
Roh UNEE 032030Z 15002MPS CAVOK 16/15 Q1007 R23/CLRD60 NOSIG RMK QFE733

VFR

16°C / 16°C

[Mehr]
Wind 150º 4kt
Sichtweite >10km
Wetter -
Wolken Clouds and Visibility OK
Druck 1007
Änderung No Significant change
Roh UNEE 032000Z 15002MPS CAVOK 16/16 Q1007 R23/CLRD60 NOSIG RMK QFE733

VFR

17°C / 16°C

[Mehr]
Wind 160º 4kt
Sichtweite >10km
Wetter -
Wolken Clouds and Visibility OK
Druck 1007
Änderung No Significant change
Roh UNEE 031930Z 16002MPS CAVOK 17/16 Q1007 R23/CLRD60 NOSIG RMK QFE733

VFR

17°C / 16°C

[Mehr]
Wind 140º 4kt
Sichtweite >10km
Wetter -
Wolken Few Clouds 4000ft
Druck 1007
Änderung No Significant change
Roh UNEE 031900Z 14002MPS 9999 FEW040 17/16 Q1007 R23/CLRD60 NOSIG RMK QFE733

VFR

17°C / 16°C

[Mehr]
Wind variable 0kt
Sichtweite >10km
Wetter -
Wolken Few Clouds 4000ft
Druck 1008
Änderung No Significant change
Roh UNEE 031830Z 00000MPS 9999 FEW040 17/16 Q1008 R23/CLRD60 NOSIG RMK QFE733

VFR

17°C / 16°C

[Mehr]
Wind variable 0kt
Sichtweite >10km
Wetter -
Wolken Few Clouds 4000ft
Druck 1008
Änderung No Significant change
Roh UNEE 031800Z 00000MPS 9999 FEW040 17/16 Q1008 R23/CLRD60 NOSIG RMK QFE733

VFR

18°C / 16°C

[Mehr]
Wind 90º 2kt
Sichtweite >10km
Wetter -
Wolken Few Clouds 3300ft
Druck 1008
Änderung No Significant change
Roh UNEE 031730Z 09001MPS 9999 FEW033CB 18/16 Q1008 R23/CLRD60 NOSIG RMK QFE733

VFR

17°C / 16°C

[Mehr]
Wind 50º 2kt
Sichtweite >10km
Wetter -
Wolken Few Clouds 3300ft
Druck 1008
Änderung No Significant change
Roh UNEE 031700Z 05001MPS 9999 FEW033CB 17/16 Q1008 R23/CLRD60 NOSIG RMK QFE733

VFR

18°C / 16°C

[Mehr]
Wind 260º variable 210º to 280º 4kt
Sichtweite >10km
Wetter -
Wolken Few Clouds 3300ft
Druck 1008
Änderung No Significant change
Roh UNEE 031630Z 26002MPS 210V280 9999 FEW033CB 18/16 Q1008 R23/CLRD60 NOSIG RMK QFE733

VFR

18°C / 16°C

[Mehr]
Wind 150º 4kt
Sichtweite >10km
Wetter -
Wolken Few Clouds 3300ft
Druck 1008
Änderung No Significant change
Roh UNEE 031600Z 15002MPS 9999 FEW033CB 18/16 Q1008 R23/CLRD60 NOSIG RMK QFE733

VFR

19°C / 16°C

[Mehr]
Wind 190º 4kt
Sichtweite >10km
Wetter -
Wolken Few Clouds 3300ft
Druck 1008
Änderung No Significant change
Roh UNEE 031530Z 19002MPS 9999 FEW033CB 19/16 Q1008 R23/CLRD60 NOSIG RMK QFE733

VFR

19°C / 16°C

[Mehr]
Wind 210º 6kt
Sichtweite >10km
Wetter -
Wolken Few Clouds 3300ft
Druck 1008
Änderung No Significant change
Roh UNEE 031500Z 21003MPS 9999 FEW033CB 19/16 Q1008 R23/CLRD60 NOSIG RMK QFE733

VFR

20°C / 16°C

[Mehr]
Wind 220º 6kt
Sichtweite >10km
Wetter -
Wolken Clouds and Visibility OK
Druck 1007
Änderung No Significant change
Roh UNEE 031430Z 22003MPS CAVOK 20/16 Q1007 R23/CLRD60 NOSIG RMK QFE733

VFR

21°C / 16°C

[Mehr]
Wind 210º 6kt
Sichtweite >10km
Wetter -
Wolken Clouds and Visibility OK
Druck 1007
Änderung No Significant change
Roh UNEE 031400Z 21003MPS CAVOK 21/16 Q1007 R23/CLRD60 NOSIG RMK QFE732

TAF für 55.27°N 86.11°O (UNEE)

From till


From till Wind 120º 6kt. Gust 16kt. Visibility 804.670m. Fog . Broken Clouds 200ft. Broken Clouds 1600ft.
Temporarly from till Visibility 144.841m. Light Thunderstorm Rain Fog . Broken Clouds 100ft. Broken Clouds 1600ft.
From till Wind 250º 6kt. Gust 16kt. Visibility 6000m. Light Showers Rain . Broken Clouds 1600ft.
Temporarly from till Wind 340º 10kt. Gust 27kt. Light Thunderstorm Rain . Scattered Clouds 200ft. Broken Clouds 1600ft.

Roh: TAF UNEE 032300Z 0400/0424 12003G08MPS 0800 FG BKN002 BKN016CB TEMPO 0400/0403 0150 -TSRA FG BKN001 BKN016CB FM040300 25003G08MPS 6000 -SHRA BKN016CB TEMPO 0403/0424 34005G14MPS -TSRA SCT002 BKN016CB

Aktuelle Satelliten- und Regenbilder für 55.27°N 86.11°O

Die Standortmarkierung ist platziert auf 55.27°N 86.11°O. [Mehr]

Das Echtzeit-Satellitenbild kombiniert sichtbares Licht während des Tages mit Infrarotstrahlung während der Nacht. Nachts ist das Bild nicht dunkel, da Infrarotstrahlung Temperaturunterschiede erkennen kann. Leider sind niedrige Wolken und Nebel nur schwer von den Bodentemperaturen zu unterscheiden und können daher nachts fast unsichtbar sein. Meteosat-Satellitenbilder für Europa werden alle 5 Minuten in Echtzeit aktualisiert. Die Bilder GOES-16 / GOES-17 (Nord- und Südamerika) und Himawari (Asien) werden alle 10 Minuten aktualisiert.

Copyright 2021 EUMETSAT / meteoblue. / Copyright 2021 meteoblue

Radar- und Niederschlags-Nowcast für 55.27°N 86.11°O

Nieselregen
Leicht
Moderat
Stark
Sehr stark
Hagel

Die Ortsmarkierung zeigt auf 55.27°N 86.11°O. Diese Animation zeigt das Niederschlagsradar der letzten Stunde, sowie eine 1h Vorhersage. Nieselregen und leichter Schneefall können für das Radar unsichtbar sein. Die Niederschlagsintensität ist farbcodiert von Hellblau bis Lila.